[[{"header":{"parameterUnit":"m.s-1","parameterCategory":1,"la1":30.2991,"la2":30.254,"lo1":-89.0895,"lo2":-89.0444,"dy":0.0017,"dx":0.0017,"nx":28,"ny":28,"refTime":"2024-05-29T09:00:00:Z","depth":0,"parameterNumber":2,"parameterNumberName":"U-component_of_WINDS"},"data":[0,0,0,0,0,0,0,0,0,0,0,0,0,0,0,0,0,0,0,0,0,0,0,0,0,0,0,0,0,0,0,0,0,0,0,0,0,0,0,0,0,0,0,0,0,0,0,0,0,0,0,0,0,0,0,0,0,0,-0.6382,-0.6382,0,-0.6449,-0.645,-0.6451,-0.6482,-0.6482,-0.6482,-0.6482,-0.655,-0.6551,-0.6553,0,0,0,0,0,0,0,0,0,0,0,0,0,-0.6279,-0.6281,-0.6382,-0.6382,-0.6383,-0.6449,-0.645,-0.6451,-0.6482,-0.6482,-0.6482,-0.6482,-0.6549,-0.6551,-0.6553,0,0,0,0,0,0,0,0,0,0,0,0,0,-0.6333,-0.6281,-0.6381,-0.6407,-0.641,-0.6449,-0.645,-0.6451,-0.6482,-0.6482,-0.6482,-0.6482,-0.6548,-0.6551,-0.6554,-0.6573,0,0,-0.6562,-0.6563,0,0,0,0,0,0,0,0,-0.633,-0.6336,-0.6402,-0.6405,-0.6408,-0.6457,-0.6439,-0.6492,-0.6482,-0.6455,-0.6482,-0.6482,-0.6519,-0.6524,-0.6537,-0.6576,-0.6579,-0.6563,-0.6564,-0.6565,-0.6566,0,0,0,0,0,0,0,-0.6326,-0.6334,-0.6408,-0.6403,-0.6407,-0.6415,-0.6422,-0.6449,-0.6486,-0.6457,-0.6459,-0.6467,-0.6521,-0.6534,-0.6539,-0.658,-0.6562,-0.6565,-0.6567,-0.6568,-0.6639,-0.664,0,0,0,0,0,0,-0.6318,-0.633,-0.6406,-0.641,-0.6368,-0.6417,-0.6425,-0.6442,-0.6486,-0.6493,-0.6467,-0.6468,-0.6529,-0.6535,-0.6541,-0.6568,-0.6565,-0.6568,-0.657,-0.6639,-0.6639,-0.664,0,0,0,0,0,0,-0.6316,-0.6325,-0.6404,-0.6371,-0.6382,-0.6418,-0.6437,-0.6443,-0.6457,-0.6494,-0.65,-0.6474,-0.653,-0.6537,-0.6565,-0.657,-0.6569,-0.6572,-0.6639,-0.6639,-0.6639,-0.6619,0,0,0,0,0,0,-0.6313,-0.6324,-0.6331,-0.6371,-0.6383,-0.6426,-0.6437,-0.6444,-0.6462,-0.6464,-0.6502,-0.6508,-0.653,-0.6561,-0.6568,-0.6574,-0.6574,-0.6639,-0.6639,-0.6639,-0.662,-0.6619,-0.6618,0,0,0,0,0,-0.6309,-0.6322,-0.6331,-0.634,-0.6394,-0.6426,-0.6434,-0.6459,-0.6462,-0.647,-0.6494,-0.6507,-0.6568,-0.6563,-0.6572,-0.6579,-0.6638,-0.6639,-0.6639,-0.662,-0.6619,-0.6618,0,0,0,0,0,0,-0.6281,-0.6328,-0.6338,-0.6365,-0.6392,-0.6432,-0.6442,-0.6457,-0.6483,-0.6483,-0.6513,-0.6522,-0.6547,-0.6566,-0.6559,-0.66,-0.6605,-0.6607,-0.6587,-0.6587,-0.6586,-0.6581,-0.6576,0,0,0,0,0,-0.6278,-0.6301,-0.634,-0.636,-0.6373,-0.6405,-0.642,-0.6438,-0.6466,-0.6478,-0.6504,-0.6531,-0.6556,-0.6572,-0.6598,-0.6623,-0.6632,-0.6632,-0.6631,-0.663,-0.6632,-0.6647,-0.6648,-0.6641,-0.6641,-0.6641,0,0,-0.6271,-0.63,-0.6312,-0.6355,-0.6378,-0.6401,-0.6414,-0.6438,-0.6456,-0.6481,-0.651,-0.653,-0.6562,-0.6589,-0.6602,-0.6605,-0.6636,-0.6631,-0.663,-0.6632,-0.6648,-0.6649,-0.6649,-0.6642,-0.6642,-0.6642,0,0,-0.6272,-0.6295,-0.6315,-0.6338,-0.6373,-0.6394,-0.6399,-0.6438,-0.6452,-0.6481,-0.6501,-0.6523,-0.6565,-0.6588,-0.6605,-0.6616,-0.663,-0.6624,-0.662,-0.6635,-0.6635,-0.6636,-0.6641,-0.6642,-0.6625,-0.6625,-0.6625,0,-0.6259,-0.6296,-0.6323,-0.6346,-0.6365,-0.639,-0.641,-0.6431,-0.6472,-0.6484,-0.6487,-0.6543,-0.6566,-0.6599,-0.6602,-0.6615,-0.6621,-0.6619,-0.6633,-0.6634,-0.6635,-0.664,-0.6642,-0.6624,-0.6624,-0.6624,-0.6624,0,-0.6279,-0.6304,-0.6316,-0.6356,-0.6376,-0.6397,-0.6428,-0.6445,-0.6461,-0.6482,-0.6512,-0.6541,-0.6574,-0.6583,-0.6598,-0.6618,-0.662,-0.6627,-0.6633,-0.6634,-0.664,-0.6642,-0.6623,-0.6623,-0.6623,-0.6624,0,0,-0.6263,-0.6319,-0.6323,-0.6342,-0.6383,-0.6403,-0.6426,-0.6459,-0.6473,-0.6501,-0.6521,-0.6558,-0.6566,-0.6585,-0.6603,-0.6616,-0.6625,-0.6623,-0.6624,-0.6623,-0.665,-0.6644,-0.6646,-0.6634,-0.6634,-0.6635,-0.6648,0,-0.627,-0.6313,-0.6339,-0.6371,-0.6395,-0.642,-0.6441,-0.6468,-0.6489,-0.6512,-0.6535,-0.6561,-0.657,-0.6582,-0.6596,-0.6621,-0.6631,-0.662,-0.6653,-0.6654,-0.6645,-0.6649,-0.6642,-0.6653,-0.665,-0.665,-0.665,0,-0.6283,-0.6312,-0.6347,-0.6387,-0.6398,-0.6415,-0.6448,-0.647,-0.6502,-0.6517,-0.6539,-0.6558,-0.6583,-0.6586,-0.6623,-0.6615,-0.663,-0.6645,-0.6646,-0.665,-0.6653,-0.6653,-0.6657,-0.6659,-0.6654,-0.6653,-0.6653,0,-0.6269,-0.6316,-0.6343,-0.6359,-0.6406,-0.6418,-0.6438,-0.647,-0.6488,-0.6517,-0.6529,-0.656,-0.6577,-0.66,-0.6627,-0.6626,-0.6661,-0.6666,-0.6673,-0.6673,-0.668,-0.6679,-0.6686,-0.6689,-0.6688,-0.6688,-0.6688,0,-0.6274,-0.6295,-0.6338,-0.6355,-0.6379,-0.6409,-0.6432,-0.6454,-0.6483,-0.6505,-0.6528,-0.6547,-0.6581,-0.6605,-0.6626,-0.6653,-0.6661,-0.6673,-0.6678,-0.6671,-0.667,-0.6682,-0.6682,-0.6689,-0.6689,-0.6689,-0.6689,0,-0.6262,-0.6292,-0.6324,-0.6366,-0.6377,-0.6393,-0.6429,-0.6447,-0.647,-0.6497,-0.6505,-0.6541,-0.6571,-0.66,-0.6639,-0.6653,-0.6681,-0.6687,-0.667,-0.6673,-0.668,-0.6679,-0.6695,-0.6699,-0.6698,-0.6698,-0.6698,0,-0.6263,-0.628,-0.6325,-0.6342,-0.6361,-0.6388,-0.6407,-0.6438,-0.6457,-0.6495,-0.6509,-0.654,-0.6567,-0.6614,-0.6643,-0.6673,-0.6681,-0.6685,-0.6686,-0.6679,-0.6682,-0.6681,-0.6684,-0.6684,-0.6684,-0.6684,-0.6684,0,-0.6263,-0.6278,-0.6305,-0.6338,-0.6361,-0.6388,-0.6416,-0.6428,-0.6464,-0.6485,-0.6516,-0.6537,-0.6578,-0.661,-0.6644,-0.6664,-0.668,-0.6684,-0.6687,-0.668,-0.667,-0.6676,-0.6669,-0.6683,-0.6683,-0.6683,-0.6683,-0.6683,-0.6259,-0.6275,-0.631,-0.634,-0.6365,-0.6391,-0.641,-0.6436,-0.6462,-0.6499,-0.6515,-0.6547,-0.658,-0.6628,-0.6648,-0.6673,-0.6677,-0.6682,-0.6683,-0.6684,-0.6683,-0.6666,-0.668,-0.668,-0.668,-0.668,-0.668,0,-0.626,-0.6284,-0.6312,-0.6351,-0.6375,-0.6389,-0.6421,-0.644,-0.6468,-0.6497,-0.6524,-0.656,-0.6591,-0.6623,-0.6656,-0.667,-0.6679,-0.6678,-0.6677,-0.6682,-0.6677,-0.6672,-0.6671,-0.6671,-0.6671,-0.6671,-0.6671,-0.6671,-0.6264,-0.6294,-0.6312,-0.6354,-0.6378,-0.641,-0.6427,-0.6452,-0.6476,-0.6516,-0.6542,-0.6563,-0.6594,-0.6629,-0.6659,-0.6667,-0.6678,-0.6676,-0.6687,-0.6682,-0.6682,-0.6683,-0.6677,-0.6678,-0.6678,-0.6689,-0.6689,-0.6689]},{"header":{"parameterUnit":"m.s-1","parameterCategory":1,"la1":30.2991,"la2":30.254,"lo1":-89.0895,"lo2":-89.0444,"dy":0.0017,"dx":0.0017,"nx":28,"ny":28,"refTime":"2024-05-29T09:00:00:Z","depth":0,"parameterNumber":3,"parameterNumberName":"V-component_of_WINDS"},"data":[0,0,0,0,0,0,0,0,0,0,0,0,0,0,0,0,0,0,0,0,0,0,0,0,0,0,0,0,0,0,0,0,0,0,0,0,0,0,0,0,0,0,0,0,0,0,0,0,0,0,0,0,0,0,0,0,0,0,1.3758,1.3758,0,1.3717,1.3716,1.3716,1.3662,1.3661,1.3661,1.366,1.3617,1.3616,1.3616,0,0,0,0,0,0,0,0,0,0,0,0,0,1.3791,1.3791,1.3759,1.3758,1.3758,1.3717,1.3716,1.3716,1.3662,1.3661,1.366,1.3659,1.3617,1.3616,1.3616,0,0,0,0,0,0,0,0,0,0,0,0,0,1.3766,1.379,1.3759,1.3726,1.3723,1.3717,1.3716,1.3715,1.3663,1.3661,1.366,1.3659,1.3617,1.3616,1.3616,1.3638,0,0,1.3614,1.3614,0,0,0,0,0,0,0,0,1.3767,1.3765,1.3731,1.3728,1.3725,1.3693,1.3712,1.369,1.3663,1.3686,1.366,1.3658,1.3643,1.364,1.3635,1.3636,1.3634,1.3614,1.3614,1.3614,1.3613,0,0,0,0,0,0,0,1.3769,1.3766,1.3742,1.3731,1.3727,1.3713,1.3708,1.3707,1.3672,1.3683,1.3679,1.3675,1.3641,1.3636,1.3634,1.3634,1.3614,1.3614,1.3613,1.3613,1.3648,1.3649,0,0,0,0,0,0,1.3776,1.3768,1.3743,1.3741,1.3743,1.3713,1.3708,1.3705,1.3672,1.3666,1.3676,1.3673,1.3638,1.3635,1.3632,1.3654,1.3614,1.3613,1.3613,1.3647,1.3648,1.365,0,0,0,0,0,0,1.3777,1.3774,1.3745,1.3753,1.3748,1.3714,1.3711,1.3705,1.3699,1.3667,1.366,1.3678,1.3636,1.3633,1.3637,1.3652,1.3613,1.3612,1.3645,1.3647,1.3649,1.37,0,0,0,0,0,0,1.3778,1.3775,1.3783,1.3754,1.3748,1.3751,1.3712,1.3705,1.3699,1.3694,1.3666,1.366,1.3635,1.3638,1.3636,1.3651,1.3612,1.3644,1.3646,1.3648,1.3697,1.3703,1.3709,0,0,0,0,0,1.3779,1.38,1.3784,1.3782,1.3758,1.3752,1.3748,1.3719,1.37,1.3708,1.3687,1.3661,1.3651,1.3638,1.3636,1.3651,1.3643,1.3646,1.3648,1.3694,1.3702,1.3709,0,0,0,0,0,0,1.3833,1.3796,1.3778,1.379,1.3774,1.3743,1.3752,1.3729,1.3719,1.3715,1.3678,1.3673,1.368,1.3666,1.3653,1.3669,1.3643,1.3645,1.3678,1.3686,1.3692,1.3694,1.3612,0,0,0,0,0,1.3846,1.3844,1.3812,1.3825,1.3818,1.3787,1.3783,1.3761,1.3744,1.3737,1.3716,1.37,1.3692,1.3688,1.368,1.3695,1.3687,1.3703,1.371,1.3715,1.3717,1.3721,1.3727,1.3659,1.3659,1.3659,0,0,1.3873,1.3853,1.3854,1.3835,1.3821,1.3819,1.3782,1.3782,1.3779,1.3737,1.3738,1.3722,1.3702,1.371,1.3713,1.3699,1.3734,1.3718,1.3723,1.3722,1.3724,1.3731,1.3737,1.3661,1.366,1.366,0,0,1.3921,1.3906,1.3915,1.3901,1.3879,1.3858,1.386,1.3832,1.3819,1.382,1.3788,1.3784,1.3773,1.3759,1.375,1.3791,1.3767,1.379,1.3821,1.3826,1.3831,1.3835,1.3848,1.3853,1.3792,1.3792,1.3792,0,1.3957,1.3953,1.3922,1.3923,1.3915,1.3877,1.3884,1.3872,1.3849,1.3844,1.3829,1.3812,1.3796,1.3799,1.3809,1.3804,1.3804,1.3792,1.3833,1.3837,1.3841,1.3852,1.3857,1.3795,1.3795,1.3795,1.3794,0,1.3998,1.3996,1.4005,1.3983,1.3976,1.3981,1.3949,1.3946,1.3925,1.3905,1.3905,1.3884,1.3869,1.3869,1.3849,1.3869,1.386,1.384,1.3812,1.385,1.386,1.3865,1.3799,1.3798,1.3797,1.3797,0,0,1.4078,1.4038,1.4042,1.403,1.4003,1.4,1.4002,1.3988,1.3985,1.397,1.397,1.3961,1.394,1.3931,1.3908,1.3912,1.3943,1.389,1.3889,1.3899,1.3961,1.3975,1.3981,1.3927,1.3928,1.3928,1.3962,0,1.412,1.4121,1.4092,1.4101,1.4097,1.406,1.4062,1.4044,1.4026,1.4019,1.3998,1.3991,1.3966,1.3959,1.3962,1.3939,1.3955,1.3936,1.3925,1.3925,1.3929,1.3987,1.4003,1.4035,1.3966,1.3966,1.3967,0,1.4168,1.4155,1.4164,1.4134,1.4132,1.4134,1.4117,1.4112,1.4091,1.4076,1.4065,1.4039,1.4037,1.4012,1.4008,1.3996,1.399,1.3978,1.3978,1.3975,1.3947,1.3983,1.4045,1.405,1.3973,1.3973,1.3972,0,1.4224,1.4208,1.4211,1.4202,1.4169,1.417,1.4156,1.4134,1.4127,1.4112,1.4107,1.4093,1.4084,1.4073,1.4044,1.4028,1.4042,1.4015,1.4029,1.403,1.4033,1.4033,1.4093,1.4032,1.4031,1.4031,1.4031,0,1.4272,1.4278,1.4235,1.4236,1.4241,1.4208,1.4213,1.4196,1.4176,1.4172,1.414,1.4137,1.4099,1.4091,1.4068,1.4067,1.4064,1.4051,1.4045,1.4053,1.4055,1.4047,1.4044,1.4033,1.4032,1.4032,1.4032,0,1.4334,1.4306,1.4305,1.4273,1.4265,1.427,1.4242,1.4241,1.422,1.4215,1.4212,1.4178,1.4167,1.4137,1.4119,1.4103,1.4108,1.4097,1.4115,1.411,1.4125,1.4123,1.4181,1.4186,1.4124,1.4125,1.4125,0,1.4366,1.4369,1.4337,1.4332,1.4319,1.4312,1.4304,1.4271,1.4264,1.4239,1.4241,1.4227,1.4215,1.4199,1.4172,1.4157,1.4144,1.4165,1.4142,1.4149,1.4142,1.4141,1.414,1.417,1.4171,1.4172,1.4172,0,1.4424,1.441,1.44,1.4384,1.4376,1.4362,1.4346,1.4344,1.4306,1.43,1.4288,1.4278,1.4258,1.4244,1.4225,1.4209,1.4184,1.418,1.4182,1.419,1.4199,1.4192,1.4127,1.4179,1.4178,1.4178,1.4177,1.4177,1.4471,1.4471,1.4448,1.4438,1.4422,1.4408,1.4405,1.4383,1.4373,1.4354,1.4335,1.4325,1.4302,1.4273,1.4259,1.4249,1.4236,1.424,1.424,1.4241,1.4244,1.4202,1.4246,1.4246,1.4245,1.4245,1.4245,0,1.4526,1.4509,1.45,1.4478,1.4469,1.4447,1.4428,1.4422,1.4413,1.4394,1.4382,1.4367,1.4353,1.4325,1.4308,1.4306,1.4293,1.4302,1.4301,1.4297,1.4258,1.4257,1.4312,1.4312,1.4312,1.4312,1.4312,1.4312,1.4554,1.4553,1.4535,1.4526,1.4509,1.4499,1.4489,1.4475,1.446,1.4445,1.4433,1.4415,1.4391,1.4372,1.4357,1.4349,1.4343,1.4356,1.4344,1.4307,1.4301,1.4294,1.4293,1.4355,1.4355,1.4384,1.4384,1.4384]}]]